Wind_Speed
64 66 69 71 73 75 76 77 79 79 79 82 88 94 101 107 113 118 121 124 124 124 121 118 114 111 108 106 103 101 100 99 98 98 99 99 100 101
66 69 71 73 74 75 77 80 84 88 90 91 97 103 110 117 121 124 124 121 117 111 105 100 96 92 89 86 84 83 82 81 82 83 84 85 86 87
69 71 73 73 75 77 81 85 91 97 101 102 106 112 115 117 115 112 107 100 93 86 82 78 75 73 71 69 68 67 67 67 68 69 71 73 76 78
71 72 73 75 78 82 86 92 98 104 110 113 113 113 109 103 96 88 80 74 70 65 61 59 56 54 53 52 52 53 54 55 56 58 60 62 65 68
72 73 75 78 82 87 93 98 104 109 113 115 111 102 91 80 71 64 59 55 53 52 50 49 47 45 43 42 41 41 42 43 45 47 50 52 55 59
73 75 79 83 89 94 99 105 109 111 109 105 96 82 69 60 56 50 45 42 41 43 43 42 42 41 40 39 37 35 35 35 36 37 40 43 47 50
74 78 83 89 95 100 105 108 108 105 97 88 75 63 55 50 45 41 38 35 36 39 38 38 40 39 39 38 37 34 32 31 31 32 33 36 38 41
78 83 89 95 100 104 107 105 99 91 80 69 59 53 48 43 39 36 34 32 32 35 35 34 36 35 35 33 32 30 28 27 27 28 29 31 33 36
84 89 94 100 104 105 101 93 82 72 64 56 50 46 42 38 34 31 30 31 34 36 33 30 32 32 31 29 26 23 23 23 24 25 27 28 30 33
89 94 99 102 102 99 91 78 66 57 52 48 44 41 37 34 32 31 29 29 32 36 34 30 29 27 26 23 20 20 19 18 20 22 24 27 30 33
93 98 101 101 96 88 76 63 53 47 44 41 40 38 35 35 33 31 30 30 29 31 32 29 27 24 21 18 18 18 19 20 21 23 25 28 31 34
96 99 99 93 83 72 61 51 44 39 36 35 35 34 34 34 34 34 33 31 29 27 27 25 23 19 16 17 18 20 21 23 25 26 27 28 30 32
97 95 89 80 68 58 49 42 37 34 32 32 31 31 31 31 32 33 33 32 29 25 24 21 18 16 15 16 19 22 23 25 26 27 27 28 29 30
93 86 76 64 55 47 40 36 33 31 30 30 30 30 29 29 30 31 31 31 28 24 20 17 15 15 15 16 18 21 24 26 26 26 26 27 27 26
83 72 62 52 44 38 35 32 29 28 28 29 29 29 29 28 27 27 28 28 26 22 17 15 14 14 15 18 20 23 24 25 25 25 25 26 26 24
69 59 50 42 37 33 31 29 28 29 29 28 28 28 28 28 27 25 24 23 21 19 15 12 11 12 14 19 23 25 26 26 25 24 25 24 24 22
56 46 39 34 31 31 30 30 31 30 30 30 29 28 28 27 26 24 23 21 18 15 12 10 10 10 13 17 21 24 25 25 24 23 23 22 22 23
45 37 31 29 28 27 28 30 30 30 30 29 29 28 26 25 24 23 21 19 16 13 10 8 7 9 11 15 19 22 23 23 23 22 22 21 21 23
36 30 28 26 26 27 28 29 29 30 29 29 28 27 25 24 22 21 19 17 15 12 9 7 6 7 9 12 16 19 21 22 21 21 20 20 21 23
29 26 25 25 26 27 28 28 29 29 29 28 27 25 24 22 20 19 17 15 13 11 8 6 4 5 6 9 12 16 19 21 20 20 19 19 19 21
24 23 23 25 26 27 28 28 28 28 27 26 25 24 22 20 18 17 15 14 12 9 7 5 3 3 4 7 10 13 16 19 20 19 18 17 18 19
21 21 23 24 26 27 28 28 28 27 27 26 25 23 21 19 17 16 14 13 11 8 5 3 2 1 2 5 7 10 13 16 18 18 16 16 16 17
19 21 22 24 26 27 28 28 27 27 26 25 24 22 20 19 17 15 13 11 10 8 5 2 0 1 2 4 6 8 11 14 16 16 17 17 16 17
Wind_Direction
301 302 302 303 303 303 303 303 302 301 301 301 301 301 300 299 298 297 295 294 292 291 289 287 285 283 281 280 278 276 274 272 270 268 266 265 263 261
303 303 304 304 304 304 304 305 305 305 304 304 303 303 302 301 300 299 297 296 294 292 290 287 285 283 281 279 276 274 272 270 268 266 264 263 261 259
304 305 305 305 305 306 306 306 307 306 306 306 305 305 304 302 301 299 298 297 295 293 291 289 287 285 283 280 277 274 272 269 267 264 262 260 258 257
305 306 306 306 307 307 308 308 308 308 308 308 307 306 305 303 302 301 300 299 298 297 296 294 293 291 288 285 281 277 274 270 267 265 262 260 258 256
306 307 308 308 309 309 309 310 310 310 310 309 309 309 308 306 305 304 304 302 301 300 300 300 300 298 296 293 290 286 281 277 272 268 263 261 258 256
308 309 310 310 310 311 311 311 311 311 311 310 311 311 311 310 309 309 308 307 306 304 305 307 306 305 303 300 297 293 289 283 278 273 268 264 260 257
310 311 311 312 312 313 313 313 313 312 312 312 313 313 313 313 313 313 313 312 309 307 311 310 309 309 306 303 301 297 293 288 282 277 273 268 264 259
311 312 313 313 314 314 315 315 314 314 313 314 315 316 317 317 318 318 318 317 313 311 315 314 311 312 310 307 304 300 297 293 287 282 278 273 267 263
313 313 314 315 315 315 315 315 314 313 314 316 317 318 319 320 322 323 322 322 319 318 321 319 316 316 315 315 313 309 304 298 293 287 282 277 272 268
315 315 316 316 316 316 316 315 314 314 315 317 318 321 323 324 326 328 329 329 327 324 328 329 327 325 322 323 323 322 318 313 309 302 294 288 281 274
316 316 317 317 316 316 316 316 316 316 317 318 320 322 324 326 327 329 331 333 332 329 331 334 336 335 333 337 340 341 338 332 325 317 309 301 291 282
317 317 318 317 317 317 317 317 317 317 318 319 320 321 323 325 327 329 333 337 337 336 336 338 342 347 349 349 350 348 345 340 335 329 322 314 305 294
318 318 318 317 317 317 318 319 320 320 320 320 320 320 322 326 328 331 334 337 340 342 344 347 353 358 2 0 353 349 345 343 340 336 331 326 318 309
319 319 318 317 317 318 319 320 321 322 322 321 321 322 324 327 329 331 334 336 341 346 350 354 0 5 6 4 0 356 350 348 347 345 342 339 334 327
320 318 318 318 318 319 320 322 322 322 323 323 324 325 326 327 330 333 335 337 340 345 352 357 3 9 11 10 7 3 1 357 355 356 356 354 352 349
319 318 318 319 320 321 322 324 324 324 325 325 326 326 327 328 331 333 335 336 338 341 347 356 4 9 9 8 7 6 4 5 7 8 9 10 11 15
320 320 320 321 323 324 326 327 327 327 326 327 327 327 327 328 328 330 333 336 338 340 342 350 1 8 9 10 8 8 9 11 14 19 22 25 32 41
322 323 323 324 325 326 327 328 328 328 327 326 325 325 324 325 326 327 329 334 337 340 339 341 351 3 8 9 11 14 17 20 25 30 34 41 50 60
325 326 327 328 329 330 330 330 330 330 329 328 327 326 324 324 325 325 326 330 334 338 337 331 334 350 3 10 17 20 24 29 36 41 46 55 63 71
328 330 332 333 333 334 333 333 333 333 333 333 332 330 328 326 326 326 327 328 331 335 336 331 327 343 1 15 23 27 31 37 43 49 56 64 73 80
332 335 336 337 337 338 338 337 337 337 337 337 336 335 334 332 330 329 329 330 331 333 333 331 328 345 12 26 29 32 37 42 47 53 61 72 81 87
338 340 342 343 344 344 344 344 344 343 342 341 340 339 337 336 335 335 335 335 333 332 327 326 328 2 44 46 43 42 44 49 53 58 68 81 90 96
344 347 349 350 350 350 350 350 349 349 348 348 348 346 344 342 341 340 339 338 337 334 327 308 274 119 96 83 66 58 57 60 63 68 76 85 95 102
Height
5634 5626 5618 5610 5601 5592 5582 5573 5565 5562 5562 5554 5540 5526 5509 5493 5477 5462 5448 5436 5424 5412 5400 5390 5381 5374 5368 5364 5361 5360 5359 5359 5360 5362 5365 5368 5373 5379
5619 5611 5602 5594 5584 5574 5564 5554 5542 5532 5530 5528 5514 5499 5479 5459 5439 5420 5403 5389 5376 5364 5354 5346 5340 5335 5331 5329 5327 5326 5325 5326 5326 5328 5330 5333 5338 5342
5604 5596 5586 5577 5567 5556 5546 5534 5521 5506 5497 5495 5482 5465 5446 5424 5404 5384 5365 5350 5339 5329 5321 5314 5308 5304 5302 5300 5298 5297 5297 5298 5298 5300 5302 5305 5307 5312
5589 5580 5570 5560 5550 5538 5526 5513 5498 5481 5463 5454 5448 5431 5412 5390 5372 5357 5341 5326 5314 5306 5298 5292 5287 5283 5280 5278 5276 5275 5275 5275 5275 5276 5278 5281 5283 5285
5573 5564 5553 5543 5531 5519 5505 5490 5474 5456 5436 5417 5407 5394 5379 5363 5348 5337 5324 5312 5301 5291 5284 5279 5274 5269 5265 5262 5260 5258 5257 5256 5256 5256 5256 5257 5259 5261
5557 5547 5536 5523 5511 5497 5482 5465 5447 5429 5410 5391 5377 5365 5354 5343 5331 5322 5313 5302 5292 5282 5275 5269 5263 5258 5254 5250 5247 5245 5243 5241 5240 5239 5239 5239 5240 5241
5541 5529 5517 5503 5488 5472 5455 5438 5419 5400 5384 5370 5358 5347 5338 5328 5320 5310 5302 5295 5286 5275 5270 5263 5255 5250 5244 5239 5235 5233 5230 5228 5226 5225 5224 5224 5224 5224
5524 5512 5498 5482 5466 5450 5431 5412 5392 5374 5361 5352 5343 5334 5325 5317 5309 5301 5293 5286 5279 5271 5263 5257 5248 5243 5236 5231 5226 5222 5220 5217 5215 5213 5212 5211 5210 5210
5505 5492 5477 5460 5442 5426 5410 5393 5376 5359 5346 5338 5331 5323 5316 5308 5302 5295 5287 5279 5270 5262 5257 5251 5242 5236 5229 5223 5219 5215 5212 5208 5206 5203 5201 5199 5198 5197
5485 5470 5455 5439 5420 5404 5390 5376 5361 5348 5338 5329 5322 5314 5307 5300 5294 5288 5281 5275 5266 5255 5248 5243 5236 5230 5223 5218 5213 5209 5206 5202 5199 5195 5192 5188 5186 5183
5466 5448 5432 5417 5400 5384 5370 5359 5349 5338 5329 5321 5314 5307 5300 5293 5287 5281 5276 5269 5262 5252 5244 5237 5232 5226 5220 5216 5211 5206 5202 5198 5193 5188 5183 5178 5173 5169
5448 5428 5409 5393 5378 5364 5354 5346 5338 5330 5323 5316 5309 5302 5295 5289 5282 5275 5269 5263 5256 5249 5242 5235 5229 5223 5220 5215 5211 5205 5199 5194 5188 5182 5175 5168 5161 5155
5426 5409 5391 5375 5362 5352 5343 5336 5329 5322 5316 5310 5304 5298 5292 5285 5278 5271 5264 5257 5251 5245 5239 5234 5228 5222 5217 5215 5210 5204 5197 5191 5184 5177 5169 5160 5151 5142
5405 5389 5374 5361 5351 5342 5335 5328 5322 5316 5310 5305 5299 5293 5287 5281 5275 5268 5261 5254 5248 5243 5237 5232 5228 5223 5218 5214 5209 5204 5196 5188 5181 5173 5165 5156 5145 5134
5387 5372 5360 5350 5342 5334 5328 5322 5317 5311 5306 5300 5294 5288 5282 5276 5271 5265 5258 5252 5246 5241 5236 5232 5228 5224 5219 5214 5209 5203 5196 5189 5181 5172 5163 5153 5143 5131
5373 5360 5349 5341 5334 5327 5322 5316 5311 5305 5300 5295 5289 5283 5277 5272 5267 5262 5256 5251 5245 5240 5236 5232 5228 5224 5220 5215 5209 5203 5196 5188 5181 5173 5164 5156 5146 5135
5360 5350 5342 5334 5328 5322 5316 5310 5305 5299 5294 5288 5283 5278 5273 5267 5262 5258 5253 5248 5243 5239 5235 5232 5229 5225 5221 5217 5212 5205 5198 5191 5183 5176 5169 5162 5154 5146
5348 5341 5335 5329 5323 5318 5312 5306 5300 5295 5289 5283 5278 5273 5268 5263 5258 5254 5250 5246 5241 5238 5234 5232 5229 5226 5223 5219 5215 5209 5202 5195 5188 5182 5176 5170 5165 5160
5341 5335 5329 5324 5319 5314 5308 5302 5296 5290 5284 5279 5273 5268 5263 5259 5254 5250 5246 5243 5239 5236 5233 5231 5229 5227 5224 5221 5217 5212 5206 5200 5194 5189 5184 5180 5176 5173
5335 5330 5325 5320 5315 5310 5304 5298 5292 5286 5280 5274 5268 5263 5259 5254 5250 5247 5243 5240 5237 5234 5232 5230 5229 5227 5225 5223 5219 5215 5210 5205 5200 5196 5192 5189 5187 5185
5332 5327 5323 5318 5312 5306 5300 5294 5288 5282 5276 5270 5265 5260 5255 5250 5247 5244 5240 5237 5235 5233 5231 5230 5229 5228 5226 5224 5222 5219 5215 5211 5207 5203 5201 5199 5198 5197
5330 5326 5321 5315 5310 5304 5297 5291 5285 5279 5273 5267 5261 5256 5252 5248 5244 5241 5238 5235 5233 5231 5230 5229 5228 5228 5227 5226 5225 5223 5220 5217 5214 5211 5209 5208 5207 5206
5328 5324 5319 5314 5308 5302 5295 5289 5283 5277 5271 5265 5259 5254 5249 5245 5241 5238 5236 5233 5231 5230 5229 5228 5228 5228 5228 5228 5227 5226 5225 5223 5220 5219 5217 5215 5214 5214